EN

Hourly Weather Amblainville

Today, 28 January, Thursday

Time Temperature Precipitation Wind Pressure Humidity
00:00 +8°C° 1.1 mm 3 mps 749 mmHg 98%
01:00 +8°C° 0.6 mm 4 mps 748 mmHg 97%
02:00 +8°C° 0.6 mm 5 mps 748 mmHg 96%
03:00 +9°C° 0.6 mm 5 mps 747 mmHg 95%
04:00 +9°C° 0.4 mm 6 mps 746 mmHg 95%
05:00 +9°C° 0.4 mm 6 mps 746 mmHg 94%
06:00 +9°C° 0.4 mm 7 mps 745 mmHg 93%
07:00 +10°C° 0.7 mm 7 mps 745 mmHg 93%
08:00 +10°C° 0.7 mm 7 mps 745 mmHg 92%
09:00 +11°C° 0.7 mm 7 mps 746 mmHg 92%
10:00 +11°C° 0.1 mm 7 mps 746 mmHg 86%
11:00 +12°C° 0.1 mm 8 mps 746 mmHg 80%
12:00 +13°C° 0.1 mm 8 mps 747 mmHg 73%
13:00 +14°C° 0.1 mm 7 mps 747 mmHg 75%
14:00 +12°C° 0.1 mm 7 mps 747 mmHg 76%
15:00 +13°C° 0.1 mm 6 mps 747 mmHg 77%
16:00 +12°C° 0 mm 5 mps 747 mmHg 80%
17:00 +12°C° 0 mm 5 mps 747 mmHg 82%
18:00 +11°C° 0 mm 4 mps 747 mmHg 85%
19:00 +11°C° 0.1 mm 4 mps 746 mmHg 87%
20:00 +11°C° 0.1 mm 4 mps 746 mmHg 89%
21:00 +10°C° 0.1 mm 5 mps 746 mmHg 91%
22:00 +10°C° 0.7 mm 5 mps 745 mmHg 91%
23:00 +10°C° 0.7 mm 6 mps 744 mmHg 92%

Tomorrow, 29 January, Friday

Time Temperature Precipitation Wind Pressure Humidity
00:00 +10°C° 0.7 mm 6 mps 744 mmHg 92%
01:00 +10°C° 2.7 mm 7 mps 743 mmHg 90%
02:00 +10°C° 2.7 mm 7 mps 743 mmHg 89%
03:00 +10°C° 2.7 mm 7 mps 742 mmHg 87%
04:00 +9°C° 0.1 mm 7 mps 742 mmHg 87%
05:00 +8°C° 0.1 mm 7 mps 743 mmHg 87%
06:00 +8°C° 0.1 mm 6 mps 743 mmHg 87%
07:00 +8°C° 0.1 mm 7 mps 743 mmHg 84%
08:00 +8°C° 0.1 mm 7 mps 743 mmHg 81%
09:00 +9°C° 0.1 mm 8 mps 744 mmHg 78%
10:00 +7°C° 0.3 mm 8 mps 744 mmHg 79%
11:00 +7°C° 0.3 mm 9 mps 744 mmHg 79%
12:00 +7°C° 0.3 mm 9 mps 743 mmHg 79%
13:00 +7°C° 0.2 mm 9 mps 743 mmHg 78%
14:00 +7°C° 0.2 mm 10 mps 743 mmHg 78%
15:00 +7°C° 0.2 mm 10 mps 743 mmHg 78%
16:00 +7°C° 0 mm 9 mps 744 mmHg 79%
17:00 +7°C° 0 mm 8 mps 745 mmHg 79%
18:00 +8°C° 0 mm 7 mps 745 mmHg 80%
19:00 +7°C° 0 mm 6 mps 746 mmHg 83%
20:00 +7°C° 0 mm 5 mps 746 mmHg 86%
21:00 +6°C° 0 mm 4 mps 746 mmHg 89%
22:00 +6°C° 0 mm 4 mps 745 mmHg 90%
23:00 +6°C° 0 mm 4 mps 745 mmHg 91%

Day after tomorrow, 30 January, Saturday

Time Temperature Precipitation Wind Pressure Humidity
00:00 +5°C° 0 mm 3 mps 745 mmHg 92%
01:00 +5°C° 0.5 mm 3 mps 744 mmHg 93%
02:00 +7°C° 0.5 mm 3 mps 743 mmHg 93%
03:00 +7°C° 0.5 mm 3 mps 742 mmHg 94%
04:00 +6°C° 2.3 mm 4 mps 741 mmHg 95%
05:00 +6°C° 2.3 mm 4 mps 739 mmHg 95%
06:00 +7°C° 2.3 mm 5 mps 738 mmHg 95%
07:00 +7°C° 1.5 mm 5 mps 738 mmHg 94%
08:00 +8°C° 1.5 mm 4 mps 738 mmHg 94%
09:00 +8°C° 1.5 mm 4 mps 737 mmHg 93%
10:00 +9°C° 0.1 mm 5 mps 737 mmHg 88%
11:00 +9°C° 0.1 mm 5 mps 737 mmHg 83%
12:00 +10°C° 0.1 mm 6 mps 737 mmHg 78%
13:00 +10°C° 0.2 mm 5 mps 737 mmHg 77%
14:00 +10°C° 0.2 mm 5 mps 737 mmHg 77%
15:00 +11°C° 0.2 mm 4 mps 736 mmHg 76%
16:00 +10°C° 0.1 mm 4 mps 736 mmHg 79%
17:00 +9°C° 0.1 mm 3 mps 737 mmHg 82%
18:00 +8°C° 0.1 mm 3 mps 737 mmHg 85%
19:00 +8°C° 0 mm 3 mps 737 mmHg 86%
20:00 +7°C° 0 mm 3 mps 737 mmHg 87%
21:00 +7°C° 0 mm 3 mps 737 mmHg 88%
22:00 +7°C° 0.1 mm 3 mps 737 mmHg 89%
23:00 +7°C° 0.1 mm 3 mps 736 mmHg 90%

31 January, Sunday

Time Temperature Precipitation Wind Pressure Humidity
00:00 +8°C° 0.1 mm 3 mps 736 mmHg 91%
01:00 +8°C° 0.3 mm 3 mps 736 mmHg 92%
02:00 +8°C° 0.3 mm 3 mps 736 mmHg 93%
03:00 +8°C° 0.3 mm 3 mps 735 mmHg 94%
04:00 +8°C° 0.3 mm 2 mps 735 mmHg 95%
05:00 +7°C° 0.3 mm 2 mps 735 mmHg 96%
06:00 +7°C° 0.3 mm 2 mps 735 mmHg 97%
07:00 +8°C° 0.4 mm 2 mps 735 mmHg 97%
08:00 +9°C° 0.4 mm 1 mps 735 mmHg 97%
09:00 +9°C° 0.4 mm 1 mps 735 mmHg 97%
10:00 +9°C° 0.1 mm 1 mps 735 mmHg 95%
11:00 +10°C° 0.1 mm 1 mps 735 mmHg 92%
12:00 +10°C° 0.1 mm 1 mps 735 mmHg 90%
13:00 +10°C° 0.1 mm 1 mps 734 mmHg 89%
14:00 +10°C° 0.1 mm 1 mps 733 mmHg 88%
15:00 +10°C° 0.1 mm 1 mps 733 mmHg 87%
16:00 +10°C° 0.3 mm 1 mps 732 mmHg 89%
17:00 +10°C° 0.3 mm 1 mps 732 mmHg 92%
18:00 +9°C° 0.3 mm 1 mps 732 mmHg 95%
19:00 +8°C° 0.8 mm 2 mps 732 mmHg 95%
20:00 +8°C° 0.8 mm 2 mps 733 mmHg 95%
21:00 +8°C° 0.8 mm 2 mps 733 mmHg 96%
22:00 +7°C° 0.4 mm 3 mps 734 mmHg 95%
23:00 +7°C° 0.4 mm 3 mps 734 mmHg 94%

1 February, Monday

Time Temperature Precipitation Wind Pressure Humidity
00:00 +7°C° 0.4 mm 3 mps 735 mmHg 94%
01:00 +5°C° 0.1 mm 3 mps 736 mmHg 93%
02:00 +5°C° 0.1 mm 3 mps 737 mmHg 93%
03:00 +5°C° 0.1 mm 2 mps 737 mmHg 93%
04:00 +5°C° 0 mm 2 mps 738 mmHg 92%
05:00 +5°C° 0 mm 2 mps 739 mmHg 92%
06:00 +5°C° 0 mm 2 mps 740 mmHg 91%
07:00 +5°C° 0 mm 2 mps 741 mmHg 89%
08:00 +5°C° 0 mm 2 mps 741 mmHg 88%
09:00 +7°C° 0 mm 1 mps 742 mmHg 87%
10:00 +7°C° 0 mm 1 mps 743 mmHg 83%
11:00 +8°C° 0 mm 1 mps 743 mmHg 79%
12:00 +9°C° 0 mm 1 mps 744 mmHg 75%
13:00 +8°C° 0.1 mm 2 mps 744 mmHg 79%
14:00 +7°C° 0.1 mm 2 mps 744 mmHg 83%
15:00 +7°C° 0.1 mm 2 mps 744 mmHg 87%
16:00 +8°C° 0.1 mm 2 mps 744 mmHg 88%
17:00 +8°C° 0.1 mm 2 mps 745 mmHg 89%
18:00 +8°C° 0.1 mm 3 mps 745 mmHg 91%
19:00 +8°C° 0 mm 3 mps 745 mmHg 90%
20:00 +8°C° 0 mm 3 mps 745 mmHg 90%
21:00 +8°C° 0 mm 3 mps 745 mmHg 89%
22:00 +7°C° 0.7 mm 4 mps 744 mmHg 91%
23:00 +7°C° 0.7 mm 4 mps 744 mmHg 93%

2 February, Tuesday

Time Temperature Precipitation Wind Pressure Humidity
00:00 +8°C° 0.7 mm 5 mps 743 mmHg 95%
01:00 +9°C° 2 mm 5 mps 743 mmHg 94%
02:00 +9°C° 2 mm 6 mps 742 mmHg 93%
03:00 +10°C° 2 mm 7 mps 741 mmHg 93%
04:00 +10°C° 0.1 mm 7 mps 741 mmHg 90%
05:00 +11°C° 0.1 mm 7 mps 741 mmHg 88%
06:00 +11°C° 0.1 mm 8 mps 741 mmHg 86%
07:00 +11°C° 0.2 mm 8 mps 741 mmHg 85%
08:00 +11°C° 0.2 mm 8 mps 741 mmHg 83%
09:00 +11°C° 0.2 mm 8 mps 742 mmHg 82%
10:00 +11°C° 0.3 mm 9 mps 742 mmHg 78%
11:00 +12°C° 0.3 mm 9 mps 742 mmHg 74%
12:00 +12°C° 0.3 mm 9 mps 742 mmHg 71%
13:00 +12°C° 0.1 mm 8 mps 742 mmHg 69%
14:00 +12°C° 0.1 mm 8 mps 742 mmHg 67%
15:00 +12°C° 0.1 mm 7 mps 742 mmHg 66%
16:00 +11°C° 0.1 mm 7 mps 743 mmHg 69%
17:00 +10°C° 0.1 mm 6 mps 743 mmHg 73%
18:00 +9°C° 0.1 mm 6 mps 743 mmHg 77%
19:00 +8°C° 0 mm 6 mps 744 mmHg 79%
20:00 +8°C° 0 mm 6 mps 744 mmHg 80%
21:00 +8°C° 0 mm 6 mps 744 mmHg 82%
22:00 +7°C° 0 mm 5 mps 744 mmHg 84%
23:00 +7°C° 0 mm 5 mps 744 mmHg 86%
Show more